Wind_Speed
19 18 17 17 18 19 20 20 20 20 20 20 20 19 18 17 16 15 14 12 11 11 11 11 11 11 11 10 9 9 9 11 12 13 14 16 16 17 18 18 19 18 18 21 20 18 18 20 20 22 24 25 25 26 26 25 22 21 21 21 21 20 20 18 11 11 19 23 22 24 26 25 26 26 25 25 24 22 21 21 21 23 27 29 29
18 17 18 19 20 21 21 21 21 20 21 21 21 20 18 16 14 14 13 13 13 13 13 13 12 11 10 9 8 8 9 11 12 13 15 18 18 17 17 17 18 18 19 21 21 18 18 19 19 21 25 26 25 26 27 25 22 21 21 21 21 22 20 19 15 12 17 24 25 26 26 25 26 25 24 25 25 23 21 20 20 20 22 24 26
18 18 20 21 21 21 21 20 20 19 19 18 18 18 16 15 14 14 15 15 14 13 13 13 12 10 10 10 10 11 13 14 15 15 16 18 18 17 17 18 19 19 19 21 21 20 18 19 20 24 27 27 27 27 27 26 23 20 21 21 21 22 20 18 17 15 16 22 24 24 25 25 25 22 23 26 27 26 25 25 23 21 21 20 21
19 20 20 20 19 20 20 19 19 19 19 17 16 16 16 16 16 17 17 16 15 14 14 12 11 10 10 13 15 16 16 16 16 16 16 17 18 17 17 19 21 21 21 22 22 21 20 19 21 26 28 29 29 29 28 27 24 22 22 21 21 21 19 16 16 16 16 18 22 22 22 23 23 22 24 28 30 29 29 29 28 27 25 24 23
20 19 19 18 18 18 17 17 18 18 18 17 16 17 17 16 16 17 17 17 18 18 16 13 12 13 15 18 20 20 18 17 16 17 16 17 18 17 17 19 22 23 22 22 22 23 22 21 22 25 29 30 29 30 30 27 25 25 24 23 22 21 18 16 16 17 15 16 19 21 20 21 21 21 23 28 31 31 32 31 30 30 30 29 27
21 20 18 17 17 16 14 15 15 16 16 17 17 18 17 17 17 18 17 18 18 18 17 15 14 16 19 21 21 20 19 18 17 16 16 18 19 19 18 20 22 23 23 23 22 24 24 24 24 25 27 29 29 29 30 28 26 26 26 25 23 20 17 16 16 16 16 16 16 18 19 21 21 21 23 26 26 27 30 34 35 32 30 31 32
21 20 19 18 17 15 15 15 15 16 18 17 17 17 17 16 15 14 16 18 18 17 17 16 15 17 20 21 20 19 19 18 17 17 18 20 21 20 20 21 22 23 25 25 24 24 24 24 24 25 26 27 28 29 29 28 28 28 28 27 24 19 16 17 17 17 18 18 17 17 18 19 19 21 24 25 22 21 24 29 34 34 32 31 34
22 21 20 19 18 17 17 17 16 16 17 17 18 19 17 15 15 17 20 21 20 18 17 16 17 19 20 20 19 19 19 20 19 19 19 20 22 21 20 20 20 21 24 25 25 25 24 24 25 26 26 28 29 28 28 28 29 30 29 28 25 19 15 17 19 19 19 19 18 18 18 18 18 20 23 24 22 22 22 22 26 31 33 33 33
23 22 21 20 19 18 17 17 17 17 17 18 20 19 17 16 19 22 23 22 21 19 17 17 17 18 18 18 18 19 20 20 19 19 20 21 21 21 20 20 19 20 23 25 25 25 25 26 27 28 29 29 28 28 28 28 29 30 29 29 27 21 17 19 20 19 18 18 18 18 17 17 18 20 22 22 21 22 24 23 22 26 30 33 34
25 23 21 20 19 18 17 18 18 18 18 19 19 18 18 19 20 21 22 21 19 17 16 17 18 17 16 17 17 18 19 19 19 19 19 18 18 18 19 19 19 21 25 26 25 25 26 27 28 29 31 31 29 27 27 27 28 28 27 28 28 24 21 21 21 19 18 17 17 18 16 16 18 19 20 21 22 22 24 24 24 26 26 26 30
24 22 21 20 19 19 19 19 19 18 18 18 19 20 20 19 19 20 21 19 18 16 17 18 17 16 15 16 17 18 18 17 18 18 17 16 17 17 18 18 19 23 27 26 26 26 27 27 28 29 30 31 30 29 27 26 27 27 26 27 27 24 23 22 21 20 19 16 16 18 17 16 18 19 19 21 22 23 24 23 22 24 22 18 20
24 22 21 19 19 20 20 20 20 20 20 20 21 21 20 18 18 19 20 19 20 20 20 18 17 16 16 16 17 18 17 16 16 16 16 17 17 18 19 18 19 24 28 27 27 27 27 28 28 28 28 29 29 29 27 26 26 26 25 26 26 24 23 23 22 22 20 17 17 19 19 19 19 19 20 22 23 24 23 22 20 20 22 19 17
24 23 22 21 21 21 21 21 21 21 21 22 21 21 20 20 19 18 19 20 21 21 20 18 18 18 18 18 18 17 16 15 13 15 16 16 16 18 18 17 18 23 27 27 27 27 27 28 28 29 29 29 28 27 26 25 25 25 25 27 27 26 24 23 22 22 22 20 18 19 20 20 20 20 22 23 25 25 23 22 22 21 23 23 22
26 25 24 23 22 22 21 21 21 21 21 22 21 20 22 22 21 20 20 20 21 20 20 19 19 20 20 20 18 17 16 14 12 14 16 16 16 17 18 17 17 20 23 25 25 26 27 27 28 28 28 29 28 26 24 24 22 22 23 25 26 27 27 26 24 23 23 21 19 20 22 22 22 23 22 22 24 25 25 25 26 24 24 25 26
26 25 24 23 22 21 21 22 23 22 22 21 20 21 22 23 21 20 22 23 22 21 21 21 21 21 21 20 18 17 17 16 15 16 17 17 16 15 16 17 18 19 20 22 23 24 25 26 27 27 27 29 30 27 23 22 21 20 19 21 22 25 27 27 27 26 25 22 21 23 23 23 24 23 22 22 23 23 25 25 25 24 24 24 25
26 26 25 23 22 23 23 23 23 22 21 21 21 22 24 24 23 23 24 25 24 22 21 21 23 23 22 20 19 18 17 17 18 17 16 16 16 16 15 15 17 19 20 20 21 21 23 24 25 26 26 27 30 29 24 21 20 20 19 18 19 21 24 27 28 27 26 25 24 25 24 23 23 22 22 23 23 24 25 24 23 23 23 21 20
26 26 25 23 24 24 23 23 23 22 21 23 24 25 24 23 22 22 23 22 22 20 19 20 22 25 24 22 20 19 18 17 17 16 15 15 17 18 18 17 18 20 20 19 19 20 22 24 25 26 25 26 29 31 27 23 21 21 21 20 19 18 20 25 28 28 27 27 28 29 27 25 24 24 24 24 24 26 26 24 25 25 22 16 12
26 25 24 24 25 24 23 23 22 22 22 24 25 24 22 20 20 20 20 21 21 20 20 21 23 26 27 26 23 21 19 17 15 15 15 16 17 19 20 21 20 20 19 18 19 21 23 24 26 26 25 24 27 30 30 27 24 22 23 24 23 22 20 22 26 30 30 29 31 33 33 31 28 27 27 26 25 27 26 24 26 25 19 15 13
26 24 24 26 25 23 23 22 22 23 24 24 24 23 23 22 22 22 22 24 24 24 24 25 25 26 26 26 25 25 23 20 17 16 17 17 18 19 20 20 19 17 16 18 19 21 22 24 26 27 24 23 25 28 30 31 28 24 24 26 27 26 25 21 22 28 31 30 31 34 35 34 32 30 30 29 28 28 27 26 28 25 19 18 18
27 25 26 27 25 24 24 22 22 25 25 24 23 24 23 23 23 22 21 21 22 22 22 22 23 23 23 23 23 24 25 23 21 19 18 18 18 18 19 18 16 14 14 16 18 19 21 23 25 26 24 23 25 27 27 29 30 27 27 29 28 28 28 25 22 25 30 29 29 31 32 33 34 32 31 31 30 30 29 28 28 27 22 19 19
28 27 27 26 24 24 24 23 24 25 24 23 22 22 23 24 23 22 20 18 17 17 16 17 18 18 19 20 20 20 20 21 20 20 19 18 17 17 17 16 14 13 13 15 16 18 20 22 24 26 25 23 25 27 27 27 29 27 27 29 29 27 29 29 25 24 29 30 29 30 31 33 35 34 33 32 31 30 30 29 28 28 26 22 21
29 28 27 25 24 25 25 25 24 23 22 22 22 23 24 24 22 20 19 17 16 15 14 13 14 15 16 18 18 17 15 15 16 16 17 17 16 16 16 15 13 12 13 15 17 18 19 21 23 24 24 23 23 25 26 26 28 27 26 27 29 28 30 31 28 25 27 29 29 30 32 33 35 35 34 33 32 30 30 29 28 28 29 27 24
29 28 27 26 25 26 26 24 22 21 21 22 23 24 23 22 19 17 17 16 16 15 14 12 12 13 13 14 15 15 12 11 12 13 14 14 14 14 15 14 13 13 14 16 18 18 18 20 22 22 23 24 23 24 25 26 27 27 26 28 30 30 31 33 31 27 25 27 28 29 30 31 32 34 34 33 32 30 29 29 29 28 29 31 31
29 28 27 27 26 26 25 23 21 21 21 21 22 22 22 21 19 18 17 17 17 16 16 15 15 15 14 13 13 11 9 8 10 11 12 12 12 12 13 13 12 13 14 16 17 18 18 20 21 20 21 23 24 23 25 26 26 25 25 27 29 31 32 33 33 30 26 25 27 28 29 29 30 31 31 30 28 28 29 30 31 30 30 32 34
28 28 28 26 25 24 23 22 21 21 21 21 22 22 22 21 20 18 17 17 17 17 18 18 17 17 15 13 10 7 6 6 8 9 8 9 10 10 11 11 12 14 15 15 16 17 17 18 19 19 19 21 23 23 24 25 25 24 24 25 27 30 32 33 33 32 29 26 25 26 28 29 28 28 29 28 28 29 30 30 31 32 31 32 34
28 28 27 25 24 24 23 22 21 20 20 20 20 20 19 18 17 16 15 15 16 17 18 18 17 16 14 11 8 7 8 9 9 8 8 10 12 12 11 12 13 14 15 15 15 16 16 17 18 19 19 20 22 23 23 24 25 25 24 25 26 27 30 32 33 32 30 28 25 24 25 26 26 28 30 31 30 30 30 28 29 30 31 31 33
29 28 26 24 24 24 23 21 20 19 19 18 18 18 17 17 16 14 14 15 17 17 18 19 18 17 14 12 10 10 10 11 12 12 12 13 14 13 12 13 14 15 15 15 15 15 16 17 17 18 19 19 21 22 22 22 24 25 24 25 26 26 26 29 31 31 31 31 29 25 25 26 25 26 30 32 30 29 29 28 27 28 29 29 31
29 27 26 25 24 23 22 21 21 22 21 20 20 19 17 16 16 16 16 16 18 19 19 19 18 17 14 10 9 10 11 12 13 14 14 14 13 12 13 13 14 15 15 16 16 15 15 16 17 18 19 20 20 22 22 22 23 24 24 25 25 25 25 26 28 30 31 32 31 28 28 30 28 25 27 31 30 28 28 28 27 26 27 28 28
28 27 27 25 23 23 22 22 23 24 24 23 22 20 19 17 16 16 16 14 14 15 17 17 17 15 11 8 8 9 11 12 13 14 14 13 12 11 12 12 13 14 14 15 15 16 15 15 17 18 20 21 20 21 22 22 22 23 23 24 24 25 25 25 26 27 28 30 31 30 29 31 31 27 25 27 29 28 28 28 27 26 27 28 27
27 27 27 26 25 25 25 24 25 24 23 23 23 22 20 18 16 15 14 12 9 9 10 12 12 10 8 8 9 10 12 13 13 13 11 10 9 9 10 10 11 12 13 14 15 15 15 16 17 17 17 19 20 20 21 21 21 22 22 22 23 25 26 25 26 26 25 26 29 31 29 28 30 30 26 25 26 27 27 27 27 26 27 26 26
28 28 27 26 26 26 26 25 24 23 21 21 21 22 22 20 17 15 13 10 8 7 9 11 10 9 8 10 11 11 12 12 11 10 9 8 8 8 9 9 9 10 11 13 15 15 15 15 17 16 16 17 19 19 19 20 19 20 21 21 22 23 25 25 25 26 26 24 24 27 29 28 29 29 26 24 24 25 26 27 27 27 26 25 25
29 27 27 27 27 26 25 25 23 22 21 21 22 22 22 21 19 16 13 11 10 10 11 12 11 11 11 11 11 11 11 10 9 8 7 8 8 8 8 9 9 10 10 11 13 15 14 14 15 16 15 16 17 17 18 19 18 18 19 21 21 21 23 23 23 24 26 25 23 24 26 27 28 27 25 24 24 24 24 25 25 25 25 25 24
29 27 28 29 28 26 25 25 23 23 23 23 23 23 22 22 20 18 15 13 12 12 12 12 12 11 11 10 10 9 10 9 8 7 7 8 9 9 9 8 9 10 10 10 11 13 13 13 14 14 15 15 15 15 16 17 17 17 17 19 19 19 20 21 20 21 23 25 25 24 24 24 25 25 24 23 23 24 24 23 23 23 22 22 22
28 27 29 30 28 26 26 25 25 24 24 24 24 23 22 22 21 20 18 16 14 13 13 12 12 11 11 10 10 10 9 9 8 7 7 7 8 9 9 9 9 9 10 10 10 11 11 12 12 13 14 14 14 14 15 16 16 16 16 17 17 17 17 18 19 20 21 22 24 24 24 23 23 23 21 21 21 22 23 23 23 23 22 20 19
27 28 29 28 27 27 27 27 27 26 25 24 24 23 22 21 21 21 20 19 17 16 15 14 14 13 12 12 11 11 11 10 8 7 6 6 7 7 8 9 9 9 9 10 9 9 9 10 10 12 13 13 13 13 13 14 15 16 16 16 15 16 17 17 17 19 19 19 21 22 22 22 23 22 20 19 19 18 20 21 21 21 21 20 19
28 29 29 27 27 27 28 28 27 25 23 23 22 22 22 22 22 22 21 19 19 18 17 16 14 13 11 11 9 9 8 7 6 6 5 5 6 6 5 6 7 8 8 9 9 8 8 8 8 9 10 11 12 12 12 13 13 14 15 15 14 14 16 16 16 16 17 17 19 21 20 19 21 22 21 20 19 16 15 16 17 17 17 17 17
30 30 29 28 28 28 27 27 26 24 22 21 21 22 23 23 22 21 19 18 17 17 16 15 13 11 9 8 7 5 4 2 1 2 2 3 5 6 4 3 5 7 7 7 8 8 7 8 7 8 8 9 9 11 11 12 12 12 13 14 14 13 14 15 14 14 15 16 17 19 19 18 17 19 20 20 20 18 14 12 11 12 13 13 14
29 30 29 28 28 28 28 28 28 26 23 21 21 22 22 21 21 20 18 17 16 15 14 14 13 11 9 7 5 4 2 1 3 3 2 1 2 5 4 2 4 5 5 4 5 6 7 7 7 8 8 8 9 9 10 11 11 11 11 13 14 13 13 14 14 13 13 15 15 17 18 17 15 16 18 18 18 18 17 14 11 9 8 9 9
27 28 28 28 28 28 27 28 29 28 26 23 22 21 20 20 21 21 19 19 18 16 14 14 13 10 9 8 6 4 2 1 3 4 4 3 2 1 2 1 1 3 3 2 2 3 4 5 6 7 9 9 9 9 9 10 10 10 11 12 13 13 13 14 14 13 12 12 14 15 16 15 14 14 15 16 17 16 16 17 16 13 11 9 8
26 25 25 25 25 25 25 26 27 27 25 22 21 21 20 19 19 18 17 16 15 13 12 13 13 12 11 9 7 5 2 2 4 4 4 3 4 3 2 2 1 1 1 0 1 2 3 4 5 5 7 9 8 8 9 10 10 10 10 10 12 13 12 12 14 15 12 10 12 14 14 14 14 13 14 14 14 14 14 14 15 15 15 14 12
25 24 24 24 24 24 25 25 24 22 20 19 18 18 17 16 14 13 13 13 11 8 7 6 8 11 13 10 6 3 1 4 4 4 3 3 3 4 4 4 3 3 3 3 2 3 4 4 4 5 6 8 8 7 8 10 11 10 10 10 10 11 11 11 13 14 12 10 10 12 13 13 13 13 13 12 12 12 13 14 13 13 14 14 13
26 26 26 27 26 25 25 24 20 17 18 18 17 17 16 14 12 13 14 12 10 8 5 3 2 8 12 10 6 3 3 5 4 4 5 4 4 5 5 5 4 5 6 6 4 3 4 5 5 6 7 9 9 8 7 9 10 10 11 11 11 11 11 10 11 13 13 11 9 9 10 11 12 12 12 12 11 11 12 13 13 13 13 13 12
27 27 28 27 26 25 25 22 18 17 18 18 18 16 15 13 12 12 12 11 9 7 6 4 3 6 11 11 8 5 5 5 3 3 5 5 6 6 6 5 5 6 6 6 4 3 4 6 7 8 9 10 12 11 9 10 11 11 12 12 13 13 13 12 12 12 13 12 10 9 10 10 10 10 10 11 11 10 10 11 12 13 13 12 11
27 27 26 25 24 25 24 19 17 17 18 17 18 18 15 12 12 12 11 9 9 8 7 6 6 7 9 11 10 7 7 7 5 4 6 7 7 7 6 6 7 7 7 7 7 6 6 6 8 9 10 12 13 13 12 13 14 14 13 13 13 14 15 15 14 15 14 13 12 11 11 11 11 10 9 9 11 11 11 11 12 12 12 12 11
26 26 25 23 25 26 23 17 16 18 17 15 16 19 17 13 11 11 10 10 10 10 9 9 9 9 11 12 11 9 9 8 7 7 8 9 9 8 8 8 8 8 8 8 8 7 6 6 7 9 10 12 13 13 13 14 14 14 14 14 13 14 15 15 15 16 16 15 14 13 12 13 13 12 11 10 10 11 12 12 12 11 11 11 12
24 24 24 24 26 25 20 17 18 18 17 14 14 15 16 13 10 8 8 8 10 11 11 10 10 10 11 11 12 12 12 12 11 10 10 10 9 9 10 10 9 9 9 9 9 9 9 9 9 10 10 11 12 12 12 13 13 13 14 14 14 14 13 14 15 16 16 16 16 15 14 15 15 15 15 13 11 11 11 11 11 11 11 12 13
23 23 23 24 24 21 19 20 20 17 16 15 13 11 12 13 11 10 10 9 9 10 10 9 8 8 9 11 13 14 14 14 13 12 11 11 11 11 12 12 13 13 13 13 14 14 14 13 12 12 12 12 11 11 12 13 13 13 13 13 13 14 13 13 13 14 15 17 18 17 17 17 18 18 18 16 14 13 13 12 12 11 12 13 14
23 24 23 23 22 19 18 21 22 18 16 17 15 12 12 13 13 13 14 13 12 12 11 9 8 8 9 11 13 15 15 15 13 12 12 13 13 12 12 13 14 15 16 17 18 18 17 16 15 14 15 15 14 14 15 15 14 14 15 14 14 14 14 14 14 14 14 15 18 19 19 20 21 21 21 19 18 17 17 16 16 16 15 15 14
24 25 22 21 22 20 18 20 23 21 19 18 17 15 14 15 16 16 15 15 15 15 15 13 12 12 13 14 15 15 14 12 12 12 13 14 13 13 13 14 15 15 16 17 17 18 17 17 17 18 18 18 18 17 17 17 17 17 17 17 17 17 17 16 16 16 15 16 17 19 20 22 23 23 23 22 21 21 20 20 21 20 18 17 17
24 23 20 19 21 21 18 18 21 21 19 18 18 17 15 14 14 14 13 12 11 11 12 13 14 14 14 13 13 12 11 11 12 13 13 13 13 13 13 13 13 14 14 14 14 15 16 18 20 21 22 22 21 21 20 20 20 20 20 20 20 20 20 20 20 20 19 19 19 19 20 21 22 23 24 24 24 24 24 23 23 23 22 22 22
23 22 20 19 20 20 20 19 19 20 18 16 16 17 16 16 15 15 13 13 13 12 12 13 14 14 13 11 11 11 11 10 10 9 9 9 10 10 11 11 12 13 13 14 15 16 17 19 22 23 25 25 24 24 23 23 23 23 23 22 23 24 24 24 24 23 23 23 23 22 22 23 23 24 25 25 25 26 26 26 26 25 25 26 26
Wind_Direction
133 132 132 133 130 128 128 128 127 122 116 111 107 106 110 113 113 109 104 106 111 106 98 91 86 83 80 78 73 66 71 76 77 76 66 55 49 45 43 44 44 39 33 30 30 34 35 35 34 27 22 23 20 15 12 10 8 5 2 358 353 349 346 341 336 328 332 336 337 335 337 339 338 338 343 347 348 344 334 326 319 302 290 289 286
134 134 132 130 127 126 126 126 125 122 116 110 106 108 109 110 117 118 107 105 109 103 92 89 91 89 80 70 62 62 72 80 81 79 69 59 53 47 45 45 43 39 36 34 35 36 37 38 37 27 20 20 18 12 9 8 5 360 358 358 352 347 345 339 337 335 334 335 338 339 340 341 341 343 353 0 358 355 349 344 342 328 310 299 292
132 131 127 122 120 121 121 121 122 120 116 111 107 103 99 99 107 112 109 110 111 101 95 96 94 86 72 61 61 71 82 85 82 78 71 62 57 50 48 47 44 43 42 38 35 35 39 41 34 23 17 16 14 9 6 7 6 359 356 356 352 348 346 345 347 347 338 332 335 339 339 340 341 343 351 353 348 346 343 338 336 333 328 320 312
128 126 121 115 114 116 115 116 117 114 111 111 110 105 103 105 106 108 110 109 103 99 100 99 89 77 69 66 68 75 84 89 87 83 78 70 62 56 53 51 48 47 47 41 37 36 39 39 30 20 15 13 10 6 5 6 7 3 358 355 351 347 346 350 354 352 341 332 333 337 338 338 338 341 348 346 340 340 340 334 329 327 324 321 319
125 122 118 114 112 112 112 114 114 113 110 110 113 112 110 111 112 113 113 104 99 98 93 85 78 74 74 77 77 76 80 87 91 89 83 76 70 63 58 55 52 49 45 40 40 41 39 35 28 20 14 10 8 5 4 6 6 5 1 355 350 348 347 350 353 352 349 342 335 336 340 340 337 341 349 348 341 339 339 336 333 332 326 320 315
124 121 119 116 113 112 112 114 116 121 120 116 117 116 114 116 119 118 114 106 103 99 88 81 76 76 81 84 82 79 80 84 89 88 83 78 75 69 63 60 55 48 43 41 42 43 39 34 28 19 14 12 9 6 6 8 9 8 3 358 355 355 353 351 353 354 352 347 340 339 342 343 341 340 344 346 343 339 338 336 334 335 333 326 320
126 123 122 120 118 119 121 123 126 128 129 128 126 124 124 124 122 123 120 111 105 99 92 87 80 81 86 85 82 82 81 82 83 84 83 78 75 73 68 64 58 49 43 43 45 45 42 36 28 20 17 15 12 10 12 13 13 12 7 3 2 3 1 357 355 354 350 345 342 340 339 340 342 340 339 343 342 338 340 337 331 330 333 331 324
129 127 126 125 125 128 130 131 129 129 130 130 127 126 125 118 109 113 116 109 102 98 93 90 87 86 85 81 82 82 80 81 82 82 84 81 76 74 69 66 62 52 45 44 46 48 45 40 33 26 22 21 20 21 21 18 16 15 14 12 9 7 7 6 1 356 350 344 339 337 338 340 341 340 339 343 343 340 340 336 326 323 325 324 321
130 130 130 130 131 133 134 133 132 133 133 130 127 123 118 109 104 107 108 104 100 96 89 87 89 88 84 82 82 80 77 77 79 82 85 83 78 73 68 68 65 54 47 47 50 51 48 42 37 31 28 28 29 29 28 27 23 20 19 18 14 9 7 8 6 359 352 346 341 338 340 342 344 343 341 342 341 335 333 331 322 318 319 317 315
130 130 130 131 134 135 136 136 137 140 140 135 130 122 116 112 108 105 105 102 100 95 87 83 85 85 85 85 83 80 77 75 77 83 86 81 75 71 71 72 68 57 52 53 54 52 47 42 37 33 31 31 30 30 31 32 30 25 23 23 21 18 14 10 6 0 354 348 343 341 342 342 343 342 338 336 335 332 331 330 323 320 320 318 316
133 133 132 134 139 141 142 143 143 142 139 133 126 122 121 119 111 106 107 105 102 98 90 83 80 81 85 87 85 81 77 77 83 88 86 79 73 72 76 78 70 60 57 56 55 50 45 40 36 33 30 29 29 30 31 32 31 28 26 25 25 24 19 12 8 4 358 350 344 345 343 338 339 340 336 333 334 333 331 327 322 320 321 319 315
139 138 139 145 150 151 151 150 146 141 137 130 125 124 126 123 116 113 110 107 105 102 94 85 78 78 85 89 86 80 78 80 88 93 89 82 76 74 78 82 74 63 58 55 52 47 41 37 34 31 30 28 28 29 30 32 34 34 32 31 29 26 20 14 10 7 3 356 351 351 347 339 338 339 338 336 334 331 329 324 320 316 313 310 305
144 142 146 153 157 158 158 154 149 145 141 134 129 127 129 127 124 121 114 109 107 103 94 85 78 76 82 87 85 82 78 77 89 98 93 85 80 77 79 83 77 64 57 54 50 44 37 33 31 30 29 28 27 29 30 32 35 38 39 39 36 31 27 22 16 11 7 3 358 355 350 345 341 340 341 340 336 331 327 323 320 314 308 306 301
148 149 153 158 161 161 158 152 147 144 140 137 134 133 134 131 128 124 118 112 107 100 89 83 79 77 80 84 85 83 75 71 90 101 93 85 83 81 82 83 75 64 57 53 46 39 34 30 27 27 28 28 26 27 29 29 30 31 32 34 34 33 31 28 22 15 9 6 2 355 352 351 348 346 345 343 339 334 327 322 319 314 308 305 302
151 153 156 160 160 154 148 145 144 143 143 144 144 141 138 133 128 124 118 110 104 96 87 81 80 79 81 84 88 84 73 75 94 100 91 84 82 82 85 81 71 64 58 50 42 35 31 30 27 25 26 27 26 27 29 28 25 23 22 24 27 30 30 27 24 19 14 9 3 356 354 354 352 352 351 349 346 341 334 327 323 318 313 311 309
150 151 155 157 153 148 149 151 151 149 147 145 141 135 130 125 120 118 114 109 104 98 90 82 79 79 82 85 88 85 76 79 95 101 96 89 83 81 85 82 73 65 57 47 39 33 29 28 27 25 26 27 27 28 31 29 25 20 16 14 17 22 24 23 22 21 18 16 10 4 1 1 0 1 0 359 357 352 347 341 337 333 327 320 315
149 153 156 155 149 148 151 150 146 144 137 131 128 126 123 121 119 117 114 110 108 104 97 87 80 79 80 82 85 85 78 76 88 95 95 92 85 80 80 80 75 66 56 47 40 35 32 30 27 25 26 29 29 29 31 33 29 23 17 13 11 12 14 15 16 17 17 17 15 13 12 12 11 10 10 9 7 4 359 352 348 344 335 326 320
150 153 150 146 144 145 145 142 142 141 132 125 123 123 121 121 122 121 115 111 110 107 101 93 85 80 79 78 79 81 78 76 81 85 88 89 86 80 77 75 72 65 56 48 42 36 33 31 29 26 26 30 31 30 32 35 33 28 23 18 14 11 7 6 10 13 13 14 14 15 16 17 16 16 15 14 14 13 8 360 355 349 338 332 329
150 148 143 142 143 145 145 144 145 142 134 127 127 127 126 123 120 117 112 109 108 104 100 95 88 82 78 76 76 77 76 76 78 81 85 87 84 80 77 74 70 63 51 41 35 31 30 30 30 29 29 33 34 33 33 35 34 32 29 23 16 12 9 4 6 10 11 12 13 14 15 17 17 18 19 18 18 18 14 8 4 359 347 338 335
147 144 141 143 145 148 149 146 142 138 134 131 131 132 131 128 124 120 115 112 109 105 100 95 91 86 80 76 73 73 74 75 76 78 81 82 79 76 72 67 62 57 44 31 24 24 28 29 30 31 34 37 37 36 36 36 35 34 33 29 20 14 13 11 8 11 13 12 13 14 15 17 18 19 20 19 19 19 16 14 12 9 359 345 341
140 139 140 142 144 145 145 140 135 135 136 136 137 137 137 134 130 127 124 121 118 112 104 99 97 93 85 77 72 70 71 73 74 74 75 76 75 69 62 55 52 50 40 28 22 23 28 30 30 32 36 39 39 38 38 38 37 35 35 33 26 22 22 19 14 16 18 18 17 17 17 19 20 20 20 19 19 19 17 16 16 16 12 2 353
136 136 137 137 137 138 138 136 134 134 136 136 134 134 135 133 129 130 131 129 127 123 117 109 106 102 92 82 73 68 69 72 74 76 75 72 70 65 58 55 54 48 36 27 26 27 32 34 33 33 37 40 41 41 39 38 38 36 35 33 30 28 28 26 23 23 24 24 24 22 21 20 20 19 19 18 19 19 19 19 20 21 22 23 20
135 134 133 133 133 134 135 135 134 134 133 130 127 126 128 127 127 130 134 133 134 134 130 123 115 108 99 89 78 70 67 68 71 76 79 75 70 65 61 60 58 47 34 29 29 33 40 43 38 36 39 41 40 42 42 39 37 36 35 34 32 30 29 28 27 26 25 25 24 23 23 22 20 18 17 16 18 20 21 24 26 26 27 31 36
133 132 132 132 133 133 134 135 136 135 134 131 129 128 129 131 133 134 134 134 135 134 132 127 119 112 105 99 91 80 70 68 73 77 82 84 79 71 65 64 61 49 40 37 39 42 48 48 43 39 43 44 42 42 43 41 37 35 34 33 33 32 30 28 26 25 24 23 22 21 21 21 21 20 17 16 20 23 27 30 33 34 34 35 40
134 132 132 132 133 134 135 136 137 137 138 137 136 137 138 140 142 143 142 142 140 136 131 126 120 115 111 106 99 85 72 82 92 88 82 84 87 83 75 66 57 50 47 47 50 52 53 51 47 44 45 45 44 43 43 41 38 35 33 32 32 32 30 28 26 25 23 20 18 18 20 23 24 22 20 22 26 29 31 33 36 39 41 40 43
137 136 136 138 141 142 142 142 142 142 142 142 142 143 145 145 146 147 148 147 144 140 135 130 126 123 118 109 100 93 91 94 99 96 88 89 93 91 80 67 60 58 56 56 56 58 59 55 47 44 44 45 44 43 43 42 40 36 34 32 31 32 31 29 27 25 24 22 19 14 14 21 27 28 26 27 31 32 32 32 34 38 41 41 43
143 144 145 146 148 148 146 146 144 139 136 137 136 135 136 136 132 127 127 130 130 129 130 131 129 126 119 110 102 98 96 96 97 98 97 94 91 86 75 66 61 58 56 55 54 55 59 58 49 42 44 47 45 43 43 44 42 38 35 33 32 31 32 32 30 28 27 27 26 20 15 16 24 31 32 31 32 34 35 35 35 36 39 42 43
149 150 150 149 147 146 144 141 135 128 126 127 126 124 126 130 123 111 107 114 119 119 119 122 125 126 123 117 112 105 98 96 97 98 97 93 88 81 71 62 54 49 44 44 50 55 58 56 51 44 40 42 45 43 41 42 43 40 35 33 33 32 33 34 33 31 31 32 32 31 27 24 25 32 36 35 34 37 40 40 40 39 40 44 45
152 152 149 144 141 140 138 133 128 125 122 120 117 115 119 125 123 112 106 110 119 122 121 121 125 130 129 121 116 112 104 101 100 98 95 90 83 72 61 51 45 43 40 39 46 54 55 51 50 47 41 38 40 41 40 40 41 41 37 33 33 33 32 31 29 28 30 34 35 35 33 30 29 33 40 40 38 41 45 45 44 44 45 47 46
151 150 145 139 138 138 134 129 127 126 124 122 118 113 112 116 122 120 113 112 120 132 133 129 130 138 138 126 118 114 110 108 106 101 95 87 74 63 56 48 40 40 45 47 47 49 52 52 48 45 43 41 38 39 39 39 38 39 38 34 32 32 31 30 28 28 29 33 36 37 36 34 32 35 42 45 43 45 49 49 47 46 46 47 47
149 148 142 139 141 140 135 132 131 129 130 132 129 122 115 112 114 118 119 120 128 137 141 138 136 139 138 127 120 118 117 116 112 104 95 82 69 61 59 56 48 43 48 54 51 46 48 53 50 43 42 44 42 39 39 37 36 38 38 35 31 31 30 29 29 29 31 32 35 38 38 37 36 38 44 48 47 49 53 52 51 50 48 47 48
150 148 143 141 144 143 139 138 136 134 135 139 138 135 128 120 115 115 119 124 126 127 129 131 132 130 126 121 119 121 124 123 116 105 87 68 56 51 51 55 56 51 49 56 57 50 46 52 53 45 40 43 45 42 39 35 34 36 38 35 32 29 29 29 29 30 33 34 34 36 37 37 39 43 47 49 49 50 54 53 52 52 52 50 50
151 149 145 143 145 146 144 143 141 140 141 141 141 141 138 132 125 122 123 126 128 128 128 128 127 125 122 118 119 123 127 128 119 100 74 57 48 45 48 58 66 61 53 55 63 58 48 47 52 48 41 41 44 44 41 36 32 32 35 35 33 29 27 29 30 31 33 34 35 35 35 35 38 44 49 50 49 48 50 51 51 51 52 51 51
154 151 147 146 147 148 148 146 143 142 142 142 141 141 140 138 134 132 132 134 134 132 130 127 125 123 122 120 120 120 124 125 116 93 69 56 48 43 46 58 69 65 54 49 58 63 54 47 48 48 43 40 41 43 41 36 31 30 31 31 30 27 26 28 29 29 30 33 34 35 34 33 34 38 43 48 50 48 47 48 50 51 51 51 52
154 151 150 150 149 149 149 147 144 142 142 142 142 141 140 140 140 138 138 138 138 137 137 134 131 127 123 120 117 117 119 118 111 95 71 50 44 45 51 56 59 60 55 48 48 57 60 53 49 47 42 38 39 41 38 34 32 31 28 27 26 26 26 27 26 26 27 29 31 32 33 33 33 34 36 41 46 49 50 49 49 51 54 54 56
153 151 151 152 150 150 149 147 145 144 145 147 146 145 144 144 143 142 140 139 140 142 143 141 139 138 135 131 124 120 119 118 112 98 74 45 31 29 38 51 51 51 54 50 40 43 58 59 49 44 41 36 36 38 34 29 29 29 26 25 27 27 26 25 23 23 25 28 29 29 30 31 30 31 32 33 36 43 51 53 50 48 50 52 55
154 153 152 153 153 154 153 152 151 151 151 152 152 152 151 151 151 151 153 154 154 154 155 156 157 159 157 147 135 124 118 114 114 107 87 57 31 16 16 63 69 53 50 50 39 37 52 56 45 38 35 28 27 31 28 22 22 24 23 23 26 28 26 23 21 21 23 26 26 25 25 26 28 28 28 28 30 35 42 50 52 47 43 43 45
156 156 156 157 159 161 161 161 161 159 159 161 164 165 164 165 167 170 174 177 176 175 176 175 174 175 172 158 140 128 117 337 319 312 290 253 36 26 26 88 90 55 39 44 41 36 43 45 37 29 27 21 18 21 21 18 18 20 19 17 20 23 22 17 17 19 20 19 19 17 18 23 27 26 24 24 25 29 32 36 39 40 36 33 31
158 159 162 164 166 168 169 170 170 168 168 170 174 177 181 186 188 190 193 194 193 197 202 202 200 193 181 171 166 167 179 253 292 317 312 258 206 84 51 91 96 40 27 44 51 35 29 28 21 16 15 13 10 12 14 11 11 14 15 10 11 14 14 11 11 13 12 11 10 10 15 23 28 27 25 22 19 19 24 28 30 31 29 25 18
161 163 165 165 165 165 165 164 165 167 170 174 179 184 188 188 185 185 188 190 193 201 209 215 216 206 187 176 179 186 208 256 256 275 302 272 228 210 198 210 262 324 329 95 43 9 355 355 357 358 1 2 360 1 5 4 1 3 7 5 3 5 4 1 3 8 10 9 7 9 16 21 22 20 21 20 17 13 12 16 23 27 26 24 21
165 163 162 160 158 157 155 154 155 161 169 173 174 174 173 169 168 172 176 181 193 206 216 223 217 200 188 181 179 187 281 308 280 259 262 271 267 255 232 226 259 287 257 238 268 318 322 326 333 335 340 346 347 346 350 353 350 347 349 352 352 353 352 348 350 357 3 5 5 9 15 18 15 12 10 12 17 14 7 5 9 15 18 17 14
164 158 155 154 155 155 155 156 162 169 170 168 166 167 168 170 176 184 184 183 193 208 221 249 225 193 192 197 202 223 290 318 310 262 235 234 271 280 254 239 273 296 270 245 254 302 306 303 312 318 323 333 339 338 336 338 337 335 337 339 338 338 336 332 334 343 351 354 354 358 3 7 11 13 8 4 8 12 7 4 4 4 5 7 6
158 153 151 153 157 157 158 163 171 172 167 164 166 173 179 183 183 183 180 177 183 200 220 247 242 206 205 212 217 236 280 305 308 268 246 245 258 267 259 258 287 298 270 240 244 297 306 296 300 309 316 324 331 332 329 325 324 322 323 323 324 326 325 318 312 320 333 341 344 347 348 351 357 8 9 2 359 2 4 2 0 357 353 352 354
154 152 151 155 161 164 166 171 173 167 165 171 178 183 186 186 183 182 179 178 187 203 217 227 226 220 220 222 225 242 271 281 270 261 266 265 258 254 258 273 286 286 270 258 265 287 298 294 293 300 311 319 324 326 326 324 323 322 319 314 311 313 318 316 307 304 311 321 327 332 340 345 345 350 355 352 347 345 345 344 345 349 351 348 346
152 152 154 159 166 170 174 177 171 165 168 178 185 187 188 187 183 188 195 199 206 213 215 219 228 235 234 230 233 249 266 269 261 259 265 266 264 260 264 272 275 271 267 266 266 268 276 284 288 296 308 317 320 321 322 324 326 329 329 325 317 309 310 315 312 303 300 304 309 313 320 329 333 332 328 325 326 331 334 333 333 335 339 340 339
155 155 160 166 171 175 179 179 175 175 178 177 171 174 183 188 191 201 211 216 220 224 226 229 236 243 242 239 244 256 263 261 259 259 258 258 262 267 268 269 265 258 255 256 253 252 260 273 282 290 298 304 309 315 319 322 324 326 327 330 330 323 316 314 313 306 299 297 300 303 306 311 318 322 320 313 308 311 317 322 324 323 323 325 324
163 163 166 171 176 182 183 180 178 180 182 178 171 170 182 195 206 213 216 219 222 228 234 236 238 246 255 255 256 263 268 265 260 256 251 253 260 268 272 273 270 264 258 255 255 258 264 270 274 280 285 287 291 301 309 313 316 319 319 320 324 328 327 321 314 308 300 294 293 297 301 302 306 311 313 309 303 299 298 299 302 303 305 309 312
171 171 173 176 182 188 185 179 178 179 181 184 190 193 196 205 214 214 214 217 221 225 229 233 235 248 260 260 258 262 266 265 261 256 253 256 261 265 268 273 275 271 266 262 259 260 264 267 269 274 279 281 282 290 298 301 302 306 310 310 310 314 317 315 311 308 302 293 290 291 293 295 298 302 304 303 299 296 293 291 290 291 292 293 296
177 180 181 180 183 188 186 180 180 184 187 190 195 198 205 216 224 225 225 229 231 230 230 233 240 252 259 261 262 264 265 267 268 265 262 263 264 264 268 274 278 277 275 270 264 262 264 268 272 275 278 278 278 283 289 293 295 298 302 304 304 304 302 300 300 299 296 292 290 289 289 290 293 296 297 296 295 293 291 288 286 286 286 285 284
181 185 186 181 181 186 189 184 183 188 193 196 198 200 204 214 223 229 234 236 236 238 239 242 250 257 260 262 266 269 270 275 280 279 277 279 279 277 276 277 277 278 281 282 278 274 273 275 278 279 280 279 278 278 280 284 289 294 296 298 299 298 296 294 293 292 291 289 288 287 286 286 288 290 291 291 290 289 288 288 286 283 281 280 280
183 184 186 187 187 190 191 190 189 192 195 198 202 206 208 211 216 223 228 228 229 233 237 240 248 255 257 260 267 272 277 286 294 297 302 308 306 300 298 300 299 298 300 300 297 293 291 291 291 290 288 285 282 280 280 282 286 289 291 293 294 293 291 290 289 288 288 288 286 284 282 281 281 283 285 286 286 285 285 285 284 282 280 279 279
Height
811 813 814 814 814 814 814 814 814 814 814 814 814 814 816 817 820 822 824 826 828 829 830 832 832 832 832 832 832 832 833 833 834 835 836 836 836 836 835 834 833 833 832 831 830 829 828 827 827 826 824 823 821 820 818 816 815 814 812 811 809 808 806 804 802 798 795 793 792 788 786 784 781 780 778 775 772 770 768 767 766 765 763 761 759
812 813 814 814 814 814 815 815 815 815 815 815 815 816 817 819 821 823 825 827 828 830 831 832 832 832 832 833 833 833 833 834 835 836 837 837 837 837 836 835 834 834 833 832 831 830 829 828 828 827 825 823 822 820 818 816 815 813 812 811 809 807 806 804 802 799 795 792 790 788 785 783 781 780 777 775 772 769 767 766 764 762 761 759 757
812 813 814 814 815 815 815 815 815 815 815 816 817 818 819 821 822 824 826 828 829 830 831 831 832 832 833 833 833 833 834 835 837 837 837 837 837 837 837 836 835 834 834 833 832 831 830 829 828 827 825 823 822 820 818 816 815 813 812 810 809 806 805 804 802 800 797 793 790 788 785 783 782 780 777 775 772 770 767 764 762 761 759 757 755
813 814 814 815 816 816 817 817 817 817 817 818 819 820 821 823 824 826 827 828 830 831 831 831 832 833 833 833 833 834 835 836 837 838 838 838 838 838 838 837 836 835 835 834 833 832 831 831 829 827 825 823 822 820 818 816 814 813 811 810 808 806 804 804 803 801 799 795 792 790 787 784 782 780 777 774 771 769 766 764 761 759 757 755 753
813 814 815 816 817 818 819 820 819 819 820 820 821 822 823 825 826 827 828 829 830 831 831 832 833 833 834 834 835 836 837 837 838 838 838 838 838 838 838 838 837 836 836 835 834 833 832 832 830 828 826 824 822 820 818 816 814 813 811 809 807 806 804 803 802 801 799 797 793 790 788 785 782 780 778 775 771 767 765 763 761 758 755 752 751
813 814 816 817 819 820 821 822 822 823 823 823 823 824 825 826 827 828 830 830 831 831 831 833 834 834 835 836 836 837 838 838 838 838 838 838 838 839 839 839 838 838 837 836 835 834 833 832 831 829 827 825 823 821 818 816 814 813 811 809 807 805 804 803 802 800 798 796 793 790 788 785 782 779 778 776 773 769 764 760 758 757 755 750 747
813 815 817 819 821 822 823 825 825 825 825 825 825 826 827 828 829 830 831 831 831 832 833 834 835 836 837 837 838 838 839 839 839 839 839 839 839 839 840 840 840 840 839 837 836 835 834 833 832 830 828 826 824 822 819 817 815 813 811 809 807 806 805 803 802 800 797 795 793 790 787 785 783 780 778 776 774 771 768 762 756 753 753 751 747
814 816 819 820 822 824 825 826 827 827 828 827 826 827 828 829 830 830 831 832 832 833 834 835 837 837 838 839 839 839 839 839 839 839 839 840 840 840 840 841 841 841 840 838 837 836 835 833 832 831 829 827 825 823 821 818 816 814 812 810 808 806 806 804 802 800 798 795 792 790 787 785 782 780 777 775 772 770 768 766 761 755 752 750 748
815 817 819 821 823 824 825 827 828 829 829 829 828 828 829 830 831 831 832 833 834 835 836 837 838 838 839 840 840 839 839 839 840 840 840 841 841 841 842 842 842 841 840 839 837 836 835 834 833 832 830 828 826 824 822 820 818 816 813 811 809 808 807 805 803 801 798 796 793 790 787 785 782 780 777 775 773 770 768 766 763 758 754 748 745
816 818 820 822 823 825 826 827 829 830 830 830 830 830 830 831 832 833 834 835 835 836 837 838 839 839 840 840 840 840 840 840 841 841 842 842 842 843 842 843 843 842 840 839 838 837 836 835 834 832 831 829 827 825 823 821 819 817 816 814 811 809 808 806 804 802 800 797 794 791 788 785 783 781 779 776 774 771 768 765 761 757 754 748 741
816 819 821 823 824 826 827 828 830 830 831 831 831 831 831 832 833 834 835 836 837 838 838 839 840 840 840 840 840 840 840 841 842 842 843 843 843 843 843 843 843 842 841 840 839 838 836 835 834 833 832 830 828 826 824 822 820 819 817 815 813 812 810 808 806 804 801 799 796 793 790 787 784 782 780 777 774 771 768 766 762 757 754 751 743
817 819 821 824 825 826 828 829 830 831 831 832 832 832 833 834 835 836 837 838 838 839 839 840 840 841 840 840 840 840 841 842 843 844 844 844 844 844 843 843 843 842 841 840 839 838 837 836 835 834 833 831 829 827 825 823 821 820 818 816 815 813 811 809 807 805 803 800 797 794 792 789 786 783 780 777 774 771 768 765 762 759 755 752 748
817 819 821 824 825 826 828 829 830 831 832 833 833 833 835 836 837 838 838 839 839 839 840 841 841 841 840 840 841 841 843 843 844 845 845 845 845 844 844 843 843 842 841 841 840 839 838 837 836 835 834 832 830 828 826 824 822 821 819 817 815 814 812 810 808 806 804 801 798 796 793 790 786 783 781 778 774 770 767 764 761 759 754 751 748
817 819 821 823 825 826 828 829 831 832 832 833 834 834 836 836 837 838 839 839 839 840 841 841 841 841 841 841 842 843 844 845 845 845 845 845 845 844 844 844 843 842 842 841 841 840 840 839 837 836 834 833 831 829 827 825 823 822 820 818 816 814 812 810 808 806 804 801 799 796 793 790 787 783 780 777 774 770 767 763 759 756 753 749 745
817 819 821 822 824 826 828 830 831 832 833 834 834 835 836 837 838 838 839 840 840 841 842 842 842 842 842 842 843 844 845 846 846 846 846 845 845 845 845 844 843 843 842 842 842 842 841 840 839 837 835 833 832 830 828 826 824 823 821 819 817 815 813 811 809 806 804 802 799 796 793 790 787 783 780 776 774 770 766 762 758 755 751 746 742
816 819 820 822 824 826 828 830 831 832 833 834 834 835 836 837 838 838 839 840 841 841 842 843 843 843 843 844 844 845 846 846 846 846 846 846 845 845 845 844 844 844 844 844 844 843 842 841 840 838 836 835 833 831 829 827 825 823 821 819 818 816 814 812 810 808 805 802 800 796 793 789 786 782 779 776 772 769 765 761 757 753 749 744 740
816 818 820 821 823 826 828 830 831 832 833 833 834 835 836 837 838 838 839 840 841 842 843 844 844 844 845 845 845 846 847 847 847 846 846 846 846 845 845 845 845 845 845 845 845 844 843 842 841 839 837 835 834 832 830 828 825 823 821 820 818 816 814 812 810 808 805 803 800 796 792 788 785 782 778 775 772 768 764 760 756 753 749 745 741
815 818 819 821 823 826 828 829 831 832 833 833 834 835 836 837 838 839 840 841 842 843 844 845 846 846 846 846 846 847 847 847 847 847 847 847 847 846 846 846 846 846 847 846 846 845 844 843 841 840 838 836 835 833 830 828 826 824 822 820 818 816 814 812 810 808 805 802 799 795 791 787 784 781 778 775 772 768 765 762 758 754 751 747 742
815 817 819 821 824 826 828 830 831 832 833 834 835 836 837 838 839 840 842 842 843 844 845 846 846 847 848 848 848 848 848 848 848 848 848 848 848 848 847 847 847 848 848 847 847 846 845 843 842 840 839 837 835 833 831 829 827 825 823 821 819 817 814 812 810 808 805 802 798 795 791 787 784 781 778 775 772 769 766 763 760 756 752 748 744
815 817 819 821 824 826 828 830 831 832 833 834 835 837 837 838 840 841 842 843 844 845 846 846 847 848 849 850 849 849 849 849 850 850 849 849 849 849 849 848 849 849 849 848 847 846 845 843 842 841 839 838 836 834 832 830 828 827 825 822 820 818 816 814 812 810 807 803 800 797 793 789 785 782 779 776 773 770 767 765 762 758 754 750 746
815 817 819 821 824 826 828 830 831 832 834 835 836 837 838 839 840 841 842 844 844 845 846 847 848 849 850 850 850 850 851 851 851 851 851 851 850 850 850 850 850 850 849 849 848 846 845 844 842 841 840 838 837 835 834 832 830 828 826 824 823 821 818 815 813 811 809 805 802 798 795 791 786 783 780 777 774 772 769 766 763 760 756 752 747
815 817 819 822 824 826 828 830 832 833 834 835 836 837 838 839 841 842 843 844 844 846 846 847 848 849 850 851 851 851 852 852 852 852 851 851 851 851 851 851 851 851 850 849 848 847 846 845 843 842 841 839 838 836 835 833 832 830 828 827 824 822 819 816 814 812 810 806 803 799 795 792 788 785 782 779 777 774 771 768 765 761 758 754 750
815 818 820 823 825 827 829 831 832 834 835 836 836 837 838 840 841 842 843 844 845 846 847 847 848 849 850 851 852 852 853 853 853 852 852 852 852 852 852 852 851 851 850 849 848 847 846 845 844 843 842 840 839 838 836 835 833 831 830 828 826 823 820 817 815 813 811 808 804 801 798 795 792 788 785 782 780 777 774 770 767 764 760 756 752
816 819 821 823 826 828 829 831 833 834 835 836 836 837 838 840 841 842 843 844 845 846 846 847 848 849 851 852 853 853 853 853 853 853 853 853 853 853 853 852 852 851 850 849 848 847 847 846 845 844 843 842 840 839 837 836 834 833 831 829 827 824 821 819 816 814 812 809 806 803 801 798 796 793 790 787 784 780 777 773 769 766 763 759 755
817 819 822 824 827 829 830 832 834 834 835 836 837 837 839 839 841 842 843 844 845 845 846 847 848 849 851 852 853 853 853 854 854 854 854 854 853 853 854 853 852 851 850 849 849 848 847 847 846 845 844 843 841 840 838 837 835 834 832 830 828 825 823 820 818 816 813 811 809 807 804 802 800 798 795 791 787 783 779 776 773 770 766 764 760
818 820 823 825 827 829 830 832 834 834 836 836 837 838 838 839 840 842 843 843 844 845 846 847 848 850 851 852 853 854 854 854 854 854 854 854 854 854 854 853 852 852 851 850 849 849 848 847 847 846 845 843 842 841 840 838 837 835 834 832 829 827 825 822 820 818 816 814 812 810 807 805 804 801 797 793 788 785 782 780 777 774 771 768 764
818 821 823 825 827 829 830 831 832 833 834 835 836 837 838 839 840 841 842 843 844 845 846 848 849 850 852 853 854 854 854 855 855 855 855 855 855 855 854 853 853 852 851 850 850 849 848 848 847 847 846 844 843 842 841 839 838 836 835 833 831 829 827 825 823 821 818 816 814 812 810 808 805 803 799 795 791 789 786 784 781 778 776 773 769
818 821 823 825 827 828 829 830 831 832 833 834 836 837 838 840 841 842 843 844 844 846 847 848 850 851 852 853 854 855 855 855 855 855 856 856 855 855 855 854 853 852 851 851 850 849 849 848 848 847 846 845 844 842 841 840 839 838 836 835 833 831 829 827 825 823 821 819 817 814 812 809 806 805 802 799 795 793 790 787 785 783 781 777 773
818 821 823 824 826 827 828 830 830 832 833 834 836 838 839 840 841 843 844 845 846 847 848 849 851 852 852 854 854 855 855 856 856 856 856 856 856 856 855 854 853 853 852 851 850 850 849 849 848 847 846 845 844 843 842 841 840 839 838 836 834 833 831 829 826 825 823 821 819 817 814 811 808 807 805 802 800 797 794 792 789 787 785 782 779
818 820 822 824 825 827 828 829 831 832 834 835 836 838 840 842 843 844 845 847 848 849 849 850 852 852 853 854 855 855 856 856 856 857 857 856 856 856 855 855 854 853 852 852 851 850 849 849 848 848 847 846 845 844 843 842 841 840 839 837 836 834 832 830 829 827 825 823 821 819 817 814 812 809 807 806 804 801 798 796 794 791 789 787 785
817 820 822 824 825 826 828 829 831 832 834 836 837 839 841 843 844 845 847 848 849 850 850 851 852 853 854 855 855 856 856 857 857 857 857 857 857 856 855 855 854 854 853 852 851 851 850 850 849 849 848 847 846 845 845 843 843 841 840 838 837 835 834 832 830 829 827 825 823 821 819 817 815 812 810 808 807 805 802 800 797 795 793 791 790
817 819 822 824 825 827 828 829 831 833 835 836 838 839 841 843 845 847 848 849 850 851 852 852 853 854 855 855 856 856 857 857 857 858 857 857 857 856 855 855 854 854 853 852 852 851 851 850 850 849 849 848 847 846 846 844 844 842 841 839 838 837 835 834 832 831 829 826 825 823 821 819 817 815 813 811 809 807 805 803 801 799 797 796 794
817 819 821 823 825 827 828 830 831 833 835 837 839 840 841 843 845 847 849 850 851 852 853 854 854 855 855 856 856 857 857 857 858 858 857 857 856 856 855 855 854 854 853 853 852 852 851 851 851 850 849 849 848 847 846 845 845 843 842 841 839 838 837 836 834 832 830 828 827 825 823 822 820 818 816 814 812 810 808 806 804 803 801 799 798
818 820 821 823 825 827 829 830 832 834 836 838 839 840 842 843 845 847 849 851 852 853 854 854 855 855 856 856 857 857 857 858 858 858 857 857 856 856 856 855 854 854 854 853 853 852 852 852 851 851 850 849 849 848 847 846 845 844 843 842 841 839 838 837 835 833 832 830 828 826 825 824 822 820 818 816 815 813 811 809 808 806 804 803 802
819 821 822 824 825 827 829 831 833 835 837 838 840 841 843 845 846 848 850 851 852 853 854 855 855 856 856 857 857 857 857 857 858 858 857 857 857 856 856 855 855 854 854 853 853 853 852 852 851 851 851 850 849 848 847 847 846 845 843 842 841 840 839 838 836 835 833 832 830 828 827 825 824 822 820 819 817 816 814 812 811 809 808 806 805
819 821 823 825 826 828 830 832 833 835 837 839 841 842 844 846 847 849 850 851 852 853 854 855 855 856 856 857 857 857 857 857 857 857 857 857 856 856 856 855 855 854 854 854 854 853 852 852 851 851 851 850 850 849 848 847 846 845 844 843 842 841 840 839 837 836 834 833 832 830 828 827 825 824 822 821 819 818 816 815 814 812 811 809 808
818 821 823 825 827 828 830 832 834 836 838 840 841 843 845 847 848 849 850 852 852 853 854 854 855 856 856 856 856 857 857 857 857 857 856 856 856 856 855 855 855 855 854 854 854 853 853 852 852 851 851 850 850 849 848 847 847 846 845 844 843 842 841 840 838 837 836 834 833 832 830 828 827 825 824 822 821 819 818 817 816 814 813 812 810
818 820 823 825 826 828 830 832 834 836 838 840 842 843 845 847 848 849 850 851 852 853 853 853 854 855 855 855 856 856 856 856 856 856 856 856 855 855 855 855 854 854 854 854 854 854 853 852 852 851 851 850 850 849 848 848 847 846 845 844 843 842 841 840 839 838 837 835 834 832 831 830 828 827 825 824 823 821 820 819 817 816 815 814 812
818 821 823 824 826 828 830 832 834 836 838 839 841 843 844 846 848 849 850 851 852 852 852 852 853 854 854 854 855 855 855 855 855 855 855 855 854 854 854 854 854 854 854 854 853 853 853 853 852 851 851 850 849 849 848 847 847 846 845 844 843 842 841 840 839 838 837 836 834 833 832 831 829 828 827 825 824 823 821 820 819 817 816 815 814
818 820 822 824 826 828 830 832 834 836 837 839 841 842 844 845 847 848 849 850 851 851 851 852 852 852 853 853 854 854 854 854 853 853 854 854 853 853 853 854 854 853 853 853 853 853 852 852 852 851 851 850 849 849 848 847 847 846 845 844 843 842 841 840 839 838 837 836 835 834 832 831 830 829 828 826 825 824 823 821 820 819 817 816 815
817 819 821 823 826 828 830 832 834 836 837 839 840 842 844 845 846 847 848 849 850 850 850 850 851 851 852 852 852 853 853 852 852 852 852 852 852 852 852 853 853 852 852 852 852 852 851 851 851 851 850 850 849 848 848 847 846 845 844 844 843 842 841 840 839 838 837 836 835 834 833 832 830 829 828 827 826 825 824 822 821 820 819 817 816
816 818 820 823 825 828 830 832 834 836 837 839 840 842 844 845 846 847 847 848 849 849 849 850 850 850 851 851 852 852 852 851 851 851 851 851 851 851 851 852 851 851 851 851 851 851 850 850 850 850 849 849 848 848 847 846 845 844 844 843 842 841 840 839 838 838 837 836 835 834 833 832 831 830 829 828 826 825 824 823 822 821 820 818 817
816 817 820 823 825 828 830 832 834 835 837 838 840 842 843 844 845 846 846 847 848 848 849 849 849 850 850 851 851 852 851 851 851 850 850 851 851 850 851 851 850 850 850 850 850 850 849 849 849 849 848 848 847 847 846 845 845 844 843 842 841 840 839 838 837 837 836 835 834 834 833 832 831 830 828 827 826 825 824 823 822 821 820 819 818
816 818 821 823 825 828 830 832 834 835 836 838 840 841 842 843 844 845 845 846 847 847 848 848 849 849 850 850 850 850 850 850 850 850 850 850 849 849 849 849 849 849 849 849 849 849 848 848 848 848 847 847 846 846 845 844 843 843 842 841 840 839 838 837 836 835 834 834 833 832 832 831 830 829 828 827 826 825 824 823 822 821 820 819 818
817 819 821 823 825 828 830 832 833 835 836 838 839 840 841 842 843 844 845 845 846 846 847 847 848 848 848 849 849 849 849 848 849 849 848 848 848 848 848 848 848 848 848 848 848 847 847 847 846 846 846 846 845 844 843 842 842 841 840 839 838 837 836 836 835 834 833 832 831 831 830 829 829 828 827 826 825 824 823 823 822 821 820 819 818
818 819 821 823 825 827 829 831 833 835 836 837 838 839 840 841 842 843 844 844 845 845 846 846 846 847 847 847 847 847 847 847 847 847 847 847 847 847 847 846 846 846 846 846 846 845 845 845 844 844 844 844 843 842 841 840 839 838 838 837 836 835 835 834 833 833 832 831 830 829 829 828 827 826 825 825 824 823 822 821 821 820 819 818 817
818 820 821 823 824 827 829 831 833 834 835 837 838 838 839 840 841 842 843 843 843 844 844 845 845 845 845 845 846 845 845 845 845 844 845 845 845 845 845 844 844 844 844 843 843 843 843 843 842 842 842 841 840 839 838 837 837 836 835 834 834 833 832 832 831 830 830 829 828 828 827 826 825 824 823 823 822 821 820 819 819 818 817 817 816
818 820 821 823 824 826 828 830 832 833 835 836 837 837 838 839 840 841 841 841 842 842 843 843 844 844 844 844 844 843 843 843 843 843 843 843 843 843 843 842 842 842 841 841 841 841 841 841 840 839 839 838 837 836 835 835 834 833 833 832 831 830 829 829 828 827 827 826 826 825 824 824 823 822 821 820 820 819 818 817 816 816 815 814 813
818 819 821 822 824 826 827 829 831 832 833 834 835 836 837 838 838 839 840 840 840 841 841 842 842 842 842 842 842 841 841 841 841 841 841 841 841 841 840 840 840 840 839 839 839 839 838 838 837 836 835 835 834 834 833 832 831 831 830 829 828 827 826 826 825 824 823 823 822 822 821 821 820 819 818 817 816 816 815 814 813 813 812 811 811
818 819 820 822 823 825 827 828 829 830 831 832 833 834 835 836 837 837 838 838 839 839 840 840 840 840 840 840 840 840 840 840 840 840 839 839 839 839 839 838 838 837 837 837 837 836 836 835 834 833 833 832 831 831 830 829 829 828 827 826 825 824 823 823 822 821 821 820 819 819 818 817 816 815 814 813 813 812 811 811 810 810 809 808 807
817 818 820 821 823 824 826 827 828 829 830 830 831 833 834 834 835 835 836 836 837 837 838 838 838 838 838 838 838 838 838 838 838 838 838 838 838 837 837 837 837 836 836 835 835 834 834 833 832 831 830 829 828 828 827 826 825 825 824 823 822 821 820 819 819 818 818 817 816 815 814 813 813 812 810 810 809 808 807 807 806 806 805 804 804